Location: Hermaringen
(48.5952°N, 10.2585°E)
Time: 03:00:16
(UTC+00:00)

Altair - Pass Details

Date: 16 February 2026
Orbit: 1502 x 1682 km, 47.2° (Epoch: 7 March)

Event Time Altitude Azimuth Distance (km) Brightness Sun altitude
Rises 07:56:03 0° 274° (W) 4,679 9.5 12.6°
Reaches altitude 10° 07:59:03 10° 274° (W) 3,715 9.1 13.0°
Maximum altitude 08:08:29 81° 189° (S) 1,601 8.0 14.2°
Drops below altitude 10° 08:18:17 10° 104° (ESE) 3,854 11.0 15.5°
Sets 08:21:27 0° 104° (ESE) 4,861 11.3 15.9°
